Weather History for Falfurrias, TX

Change the Weather History Date:

Tuesday, July 30, 2013

  Actual Average (KNQI) Record (KNQI)
Temperature  
Mean Temperature 92 °F -  
Max Temperature 105 °F 94 °F 102 °F (2014)
Min Temperature 79 °F 74 °F 73 °F (2014)
Cooling Degree Days 27    
Growing Degree Days 42 (Base 50)    
Moisture  
Dew Point 73 °F    
Average Humidity 64    
Maximum Humidity 90    
Minimum Humidity 21    
Precipitation  
Precipitation 0.00 in - - ()
Sea Level Pressure  
Sea Level Pressure 30.02 in    
Wind  
Wind Speed 11 mph (SE)    
Max Wind Speed 21 mph    
Max Gust Speed 29 mph    
Visibility 10 miles    
Events      
Averages and records for this station are not official NWS values.
T = Trace of Precipitation, MM = Missing Value Source: NWS Daily Summary

Daily Weather History Graph

Daily Weather History Graph

Search for Another Location

Airport:

Trip Planner

Search our weather history database for the weather conditions in past years. The results will help you decide how hot, cold, wet, or windy it might be!

Date:

Astronomy

Jul. 30, 2013 Rise Set
Actual Time 6:55 AM CDT 8:21 PM CDT
Civil Twilight 6:30 AM CDT 8:47 PM CDT
Nautical Twilight 6:00 AM CDT 9:17 PM CDT
Astronomical Twilight 5:28 AM CDT 9:48 PM CDT
Moon 1:09 AM CDT (7/30) 2:45 PM CDT (7/30)
Length of Visible Light 14h 16m
Length of Day
13h 26m
Last Quarter, 41% of the Moon is Illuminated
Jul 30
Last Quarter
Aug 6
New
Aug 14
First Quarter
Aug 20
Full
Aug 28
Last Quarter

Hourly Weather History & Observations

Time (CDT) Temp. Heat Index Dew Point Humidity Pressure Visibility Wind Dir Wind Speed Gust Speed Precip Events Conditions
12:15 AM 83.5 °F 93.6 °F 77.9 °F 83% 30.03 in 10.0 mi SE 11.5 mph - N/A   Clear
12:35 AM 83.3 °F 93.5 °F 77.9 °F 84% 30.03 in 10.0 mi SE 10.4 mph 16.1 mph N/A   Clear
12:55 AM 83.1 °F 92.9 °F 77.7 °F 84% 30.03 in 10.0 mi SE 12.7 mph - N/A   Clear
1:15 AM 82.8 °F 92.2 °F 77.7 °F 85% 30.03 in 10.0 mi SE 10.4 mph - N/A   Clear
1:35 AM 82.6 °F 91.7 °F 77.5 °F 85% 30.03 in 10.0 mi SE 10.4 mph - N/A   Clear
1:55 AM 82.4 °F 91.2 °F 77.5 °F 85% 30.03 in 10.0 mi SE 9.2 mph 17.3 mph N/A   Clear
2:15 AM 81.9 °F 90.0 °F 77.4 °F 86% 30.02 in 10.0 mi SE 10.4 mph - N/A   Clear
2:35 AM 81.9 °F 90.0 °F 77.4 °F 86% 30.02 in 10.0 mi SSE 11.5 mph - N/A   Clear
2:55 AM 81.5 °F 89.2 °F 77.4 °F 87% 30.02 in 10.0 mi SSE 10.4 mph - N/A   Clear
3:15 AM 81.1 °F 88.4 °F 77.2 °F 88% 30.01 in 10.0 mi SSE 8.1 mph - N/A   Clear
3:35 AM 81.0 °F 87.9 °F 77.0 °F 88% 30.02 in 10.0 mi SSE 8.1 mph - N/A   Clear
3:55 AM 80.8 °F 87.4 °F 77.0 °F 88% 30.01 in 10.0 mi SE 8.1 mph - N/A   Clear
4:15 AM 80.6 °F 87.1 °F 77.0 °F 89% 30.01 in 10.0 mi SSE 9.2 mph - N/A   Clear
4:35 AM 80.6 °F 87.1 °F 77.0 °F 89% 30.01 in 10.0 mi SSE 10.4 mph - N/A   Clear
4:55 AM 80.2 °F 86.1 °F 76.8 °F 89% 30.01 in 10.0 mi SSE 5.8 mph - N/A   Scattered Clouds
5:15 AM 80.2 °F 86.1 °F 76.6 °F 89% 30.02 in 10.0 mi SSE 4.6 mph - N/A   Overcast
5:35 AM 79.7 °F - 76.5 °F 90% 30.03 in 10.0 mi SE 4.6 mph - N/A   Overcast
5:55 AM 80.1 °F 85.7 °F 76.6 °F 89% 30.04 in 10.0 mi Calm Calm - N/A   Overcast
6:15 AM 80.2 °F 86.1 °F 76.6 °F 89% 30.05 in 10.0 mi Calm Calm - N/A   Overcast
6:35 AM 80.4 °F 86.5 °F 76.6 °F 88% 30.06 in 10.0 mi Calm Calm - N/A   Overcast
6:55 AM 80.1 °F 85.7 °F 76.6 °F 89% 30.06 in 7.0 mi ESE 3.5 mph - N/A   Overcast
7:15 AM 79.9 °F - 76.6 °F 90% 30.06 in 7.0 mi ESE 3.5 mph - N/A   Mostly Cloudy
7:35 AM 79.7 °F - 76.6 °F 90% 30.06 in 7.0 mi ESE 3.5 mph - N/A   Mostly Cloudy
7:55 AM 79.9 °F - 76.8 °F 90% 30.06 in 7.0 mi ESE 4.6 mph - N/A   Mostly Cloudy
8:15 AM 80.6 °F 87.1 °F 77.0 °F 89% 30.06 in 7.0 mi ESE 3.5 mph - N/A   Overcast
8:35 AM 82.0 °F 90.2 °F 77.2 °F 85% 30.06 in 7.0 mi SSE 4.6 mph - N/A   Mostly Cloudy
8:55 AM 83.7 °F 93.4 °F 77.2 °F 81% 30.06 in 7.0 mi SSE 12.7 mph 17.3 mph N/A   Mostly Cloudy
9:15 AM 84.9 °F 95.3 °F 76.8 °F 77% 30.07 in 10.0 mi SSE 9.2 mph - N/A   Mostly Cloudy
9:35 AM 86.2 °F 96.9 °F 76.5 °F 73% 30.06 in 10.0 mi SSE 15.0 mph - N/A   Scattered Clouds
9:55 AM 88.5 °F 99.4 °F 75.7 °F 66% 30.07 in 10.0 mi SSE 12.7 mph 18.4 mph N/A   Scattered Clouds
10:15 AM 89.4 °F 100.0 °F 75.2 °F 63% 30.07 in 10.0 mi South 13.8 mph - N/A   Scattered Clouds
10:35 AM 90.7 °F 99.6 °F 73.8 °F 57% 30.07 in 10.0 mi SSE 16.1 mph - N/A   Scattered Clouds
10:55 AM 93.0 °F 101.3 °F 72.7 °F 51% 30.07 in 10.0 mi SSE 15.0 mph - N/A   Clear
11:15 AM 93.6 °F 101.3 °F 71.6 °F 49% 30.07 in 10.0 mi SSE 12.7 mph 20.7 mph N/A   Clear
11:55 AM 95.9 °F 102.5 °F 70.0 °F 43% 30.06 in 10.0 mi SSE 15.0 mph 21.9 mph N/A   Clear
12:15 PM 96.6 °F 102.1 °F 68.9 °F 40% 30.05 in 10.0 mi South 15.0 mph 20.7 mph N/A   Clear
12:35 PM 98.1 °F 103.7 °F 68.5 °F 38% 30.03 in 10.0 mi South 13.8 mph 20.7 mph N/A   Clear
1:15 PM 99.7 °F 104.9 °F 67.3 °F 35% 30.02 in 10.0 mi SE 15.0 mph 20.7 mph N/A   Clear
1:35 PM 100.4 °F 103.6 °F 64.8 °F 31% 30.01 in 10.0 mi SSE 20.7 mph 24.2 mph N/A   Clear
1:55 PM 101.1 °F 104.9 °F 65.5 °F 31% 30.00 in 10.0 mi SE 19.6 mph 25.3 mph N/A   Clear
2:15 PM 102.9 °F 106.1 °F 63.9 °F 28% 30.00 in 10.0 mi SSE 11.5 mph 24.2 mph N/A   Clear
2:35 PM 102.9 °F 106.1 °F 63.5 °F 28% 29.99 in 10.0 mi South 13.8 mph 23.0 mph N/A   Clear
2:55 PM 103.5 °F 106.4 °F 63.0 °F 27% 29.98 in 10.0 mi SSE 12.7 mph 20.7 mph N/A   Clear
3:15 PM 103.6 °F 106.7 °F 63.1 °F 27% 29.97 in 10.0 mi SE 8.1 mph 19.6 mph N/A   Clear
3:35 PM 104.2 °F 105.6 °F 60.8 °F 24% 29.97 in 10.0 mi SE 12.7 mph 19.6 mph N/A   Clear
3:55 PM 105.1 °F 106.4 °F 59.9 °F 23% 29.96 in 10.0 mi South 13.8 mph 20.7 mph N/A   Clear
4:15 PM 104.5 °F 104.9 °F 59.0 °F 22% 29.95 in 10.0 mi South 10.4 mph 20.7 mph N/A   Clear
4:35 PM 104.7 °F 104.5 °F 57.7 °F 21% 29.95 in 10.0 mi South 8.1 mph 18.4 mph N/A   Clear
4:55 PM 104.0 °F 110.5 °F 67.8 °F 31% 29.94 in 10.0 mi ESE 15.0 mph 21.9 mph N/A   Clear
5:15 PM 102.2 °F 109.2 °F 68.9 °F 34% 29.94 in 10.0 mi SE 17.3 mph 26.5 mph N/A   Scattered Clouds
5:35 PM 101.7 °F 110.5 °F 70.7 °F 37% 29.94 in 10.0 mi ESE 18.4 mph 26.5 mph N/A   Scattered Clouds
5:55 PM 100.0 °F 111.0 °F 73.0 °F 42% 29.95 in 10.0 mi SE 20.7 mph 26.5 mph N/A   Clear
6:15 PM 98.1 °F 110.4 °F 74.5 °F 47% 29.94 in 10.0 mi SE 18.4 mph 27.6 mph N/A   Clear
6:35 PM 97.0 °F 109.3 °F 74.7 °F 49% 29.95 in 10.0 mi ESE 13.8 mph 28.8 mph N/A   Clear
6:55 PM 95.9 °F 107.4 °F 74.7 °F 50% 29.96 in 10.0 mi ESE 17.3 mph 23.0 mph N/A   Clear
7:15 PM 94.8 °F 104.8 °F 73.8 °F 50% 29.96 in 10.0 mi ESE 19.6 mph 25.3 mph N/A   Clear
7:35 PM 93.4 °F 102.8 °F 73.4 °F 52% 29.97 in 10.0 mi ESE 12.7 mph 23.0 mph N/A   Clear
7:55 PM 92.3 °F 100.9 °F 73.0 °F 53% 29.98 in 10.0 mi ESE 13.8 mph 23.0 mph N/A   Clear
8:15 PM 90.5 °F 100.3 °F 74.3 °F 59% 29.98 in 10.0 mi ESE 12.7 mph 21.9 mph N/A   Scattered Clouds
8:35 PM 89.2 °F 100.1 °F 75.6 °F 64% 29.99 in 10.0 mi ESE 13.8 mph 18.4 mph N/A   Scattered Clouds
8:55 PM 88.0 °F 99.1 °F 76.1 °F 68% 30.00 in 10.0 mi ESE 13.8 mph 17.3 mph N/A   Scattered Clouds
9:15 PM 86.9 °F 97.3 °F 76.1 °F 70% 30.01 in 10.0 mi ESE 9.2 mph - N/A   Clear
9:35 PM 86.4 °F 96.4 °F 76.1 °F 71% 30.01 in 10.0 mi ESE 11.5 mph 17.3 mph N/A   Clear
9:55 PM 85.6 °F 95.0 °F 75.7 °F 72% 30.02 in 10.0 mi SE 10.4 mph - N/A   Clear
10:15 PM 85.1 °F 94.1 °F 75.4 °F 73% 30.02 in 10.0 mi SE 10.4 mph - N/A   Clear
10:35 PM 84.7 °F 92.8 °F 74.8 °F 72% 30.03 in 10.0 mi SE 11.5 mph 17.3 mph N/A   Clear
10:55 PM 84.4 °F 92.7 °F 75.2 °F 74% 30.03 in 10.0 mi SE 10.4 mph - N/A   Clear
11:15 PM 83.8 °F 91.8 °F 75.2 °F 75% 30.04 in 10.0 mi SE 9.2 mph - N/A   Clear
11:35 PM 83.3 °F 90.8 °F 75.2 °F 76% 30.04 in 10.0 mi SE 10.4 mph - N/A   Clear
11:55 PM 82.8 °F 90.1 °F 75.4 °F 78% 30.05 in 10.0 mi SE 9.2 mph - N/A   Clear